Time,TemperatureF,DewpointF,PressureIn,WindDirection,WindDirectionDegrees,WindSpeedMPH,WindSpeedGustMPH,Humidity,HourlyPrecipIn,Conditions,Clouds,dailyrainin,SolarRadiationWatts/m^2,SoftwareType,DateUTC
2013-01-10 00:22:00,55.0,-24.0,-100.00,ENE,72,7.0,17.0,3,0.00,,,0.00,0.000000,,2013-01-10 10:22:00,
2013-01-10 00:32:00,55.0,-24.0,-100.00,ENE,72,7.0,17.0,3,0.00,,,0.00,0.000000,,2013-01-10 10:32:00,
2013-01-10 00:42:00,55.0,-24.0,-100.00,ENE,72,7.0,17.0,3,0.00,,,0.00,0.000000,,2013-01-10 10:42:00,
2013-01-10 00:52:00,55.0,-24.0,-100.00,ENE,72,7.0,17.0,3,0.00,,,0.00,0.000000,,2013-01-10 10:52:00,
2013-01-10 01:22:00,52.0,-27.0,-100.00,ESE,103,3.0,16.0,3,0.00,,,0.00,0.000000,,2013-01-10 11:22:00,
2013-01-10 01:32:00,52.0,-27.0,-100.00,ESE,103,3.0,16.0,3,0.00,,,0.00,0.000000,,2013-01-10 11:32:00,
2013-01-10 01:42:00,52.0,-27.0,-100.00,ESE,103,3.0,16.0,3,0.00,,,0.00,0.000000,,2013-01-10 11:42:00,
2013-01-10 01:52:00,52.0,-27.0,-100.00,ESE,103,3.0,16.0,3,0.00,,,0.00,0.000000,,2013-01-10 11:52:00,
2013-01-10 04:22:00,50.0,-28.0,-100.00,ESE,119,8.0,12.0,3,-99.99,,,0.00,0.000000,,2013-01-10 14:22:00,
2013-01-10 04:32:00,50.0,-28.0,-100.00,ESE,119,8.0,12.0,3,-99.99,,,0.00,0.000000,,2013-01-10 14:32:00,
2013-01-10 04:43:00,50.0,-28.0,-100.00,ESE,119,8.0,12.0,3,-99.99,,,0.00,0.000000,,2013-01-10 14:43:00,
2013-01-10 04:52:00,50.0,-28.0,-100.00,ESE,119,8.0,12.0,3,-99.99,,,0.00,0.000000,,2013-01-10 14:52:00,
2013-01-10 05:22:00,51.0,-27.0,-100.00,SE,130,9.0,17.0,3,0.00,,,0.00,0.000000,,2013-01-10 15:22:00,
2013-01-10 05:32:00,51.0,-27.0,-100.00,SE,130,9.0,17.0,3,0.00,,,0.00,0.000000,,2013-01-10 15:32:00,
2013-01-10 05:43:00,51.0,-27.0,-100.00,SE,130,9.0,17.0,3,0.00,,,0.00,0.000000,,2013-01-10 15:43:00,
2013-01-10 05:52:00,51.0,-27.0,-100.00,SE,130,9.0,17.0,3,0.00,,,0.00,0.000000,,2013-01-10 15:52:00,
2013-01-10 06:22:00,53.0,-26.0,-100.00,NE,53,3.0,16.0,3,0.00,,,0.00,0.000000,,2013-01-10 16:22:00,
2013-01-10 06:33:00,53.0,-26.0,-100.00,NE,53,3.0,16.0,3,0.00,,,0.00,0.000000,,2013-01-10 16:33:00,
2013-01-10 06:42:00,53.0,-26.0,-100.00,NE,53,3.0,16.0,3,0.00,,,0.00,0.000000,,2013-01-10 16:42:00,
2013-01-10 06:52:00,53.0,-26.0,-100.00,NE,53,3.0,16.0,3,0.00,,,0.00,0.000000,,2013-01-10 16:52:00,
2013-01-10 07:22:00,54.0,-25.0,-100.00,SE,139,4.0,12.0,3,0.00,,,0.00,0.000000,,2013-01-10 17:22:00,
2013-01-10 07:33:00,54.0,-25.0,-100.00,SE,139,4.0,12.0,3,0.00,,,0.00,0.000000,,2013-01-10 17:33:00,
2013-01-10 07:42:00,54.0,-25.0,-100.00,SE,139,4.0,12.0,3,0.00,,,0.00,0.000000,,2013-01-10 17:42:00,
2013-01-10 07:53:00,54.0,-25.0,-100.00,SE,139,4.0,12.0,3,0.00,,,0.00,0.000000,,2013-01-10 17:53:00,
2013-01-10 08:22:00,57.0,-23.0,-100.00,SE,124,9.0,16.0,3,0.00,,,0.00,75.000000,,2013-01-10 18:22:00,
2013-01-10 08:33:00,57.0,-23.0,-100.00,SE,124,9.0,16.0,3,0.00,,,0.00,75.000000,,2013-01-10 18:33:00,
2013-01-10 08:43:00,57.0,-23.0,-100.00,SE,124,9.0,16.0,3,0.00,,,0.00,75.000000,,2013-01-10 18:43:00,
2013-01-10 08:52:00,57.0,-23.0,-100.00,SE,124,9.0,16.0,3,0.00,,,0.00,75.000000,,2013-01-10 18:52:00,
2013-01-10 09:23:00,66.0,-17.0,-100.00,ESE,106,14.0,26.0,3,0.00,,,-99.99,321.000000,,2013-01-10 19:23:00,
2013-01-10 09:32:00,66.0,-17.0,-100.00,ESE,106,14.0,26.0,3,0.00,,,-99.99,321.000000,,2013-01-10 19:32:00,
2013-01-10 09:43:00,66.0,-17.0,-100.00,ESE,106,14.0,26.0,3,0.00,,,-99.99,321.000000,,2013-01-10 19:43:00,
2013-01-10 09:52:00,66.0,-17.0,-100.00,ESE,106,14.0,26.0,3,0.00,,,-99.99,321.000000,,2013-01-10 19:52:00,
2013-01-10 10:23:00,64.0,-18.0,-100.00,NW,313,10.0,28.0,3,0.00,,,0.00,554.000000,,2013-01-10 20:23:00,
2013-01-10 10:32:00,64.0,-18.0,-100.00,NW,313,10.0,28.0,3,0.00,,,0.00,554.000000,,2013-01-10 20:32:00,
2013-01-10 10:42:00,64.0,-18.0,-100.00,NW,313,10.0,28.0,3,0.00,,,0.00,554.000000,,2013-01-10 20:42:00,
2013-01-10 10:53:00,64.0,-18.0,-100.00,NW,313,10.0,28.0,3,0.00,,,0.00,554.000000,,2013-01-10 20:53:00,
2013-01-10 11:23:00,67.0,-16.0,-100.00,NNW,342,10.0,20.0,3,0.00,,,0.00,741.000000,,2013-01-10 21:23:00,
2013-01-10 11:33:00,67.0,-16.0,-100.00,NNW,342,10.0,20.0,3,0.00,,,0.00,741.000000,,2013-01-10 21:33:00,
2013-01-10 11:42:00,67.0,-16.0,-100.00,NNW,342,10.0,20.0,3,0.00,,,0.00,741.000000,,2013-01-10 21:42:00,
2013-01-10 11:52:00,67.0,-16.0,-100.00,NNW,342,10.0,20.0,3,0.00,,,0.00,741.000000,,2013-01-10 21:52:00,
2013-01-10 12:24:00,69.0,-15.0,-100.00,NNW,344,10.0,19.0,3,0.00,,,0.00,884.000000,,2013-01-10 22:24:00,
2013-01-10 12:32:00,69.0,-15.0,-100.00,NNW,344,10.0,19.0,3,0.00,,,0.00,884.000000,,2013-01-10 22:32:00,
2013-01-10 12:43:00,69.0,-15.0,-100.00,NNW,344,10.0,19.0,3,0.00,,,0.00,884.000000,,2013-01-10 22:43:00,
2013-01-10 13:22:00,68.0,-16.0,-100.00,NNW,345,8.0,21.0,3,0.00,,,0.00,707.000000,,2013-01-10 23:22:00,
2013-01-10 13:33:00,68.0,-16.0,-100.00,NNW,345,8.0,21.0,3,0.00,,,0.00,707.000000,,2013-01-10 23:33:00,
2013-01-10 13:42:00,68.0,-16.0,-100.00,NNW,345,8.0,21.0,3,0.00,,,0.00,707.000000,,2013-01-10 23:42:00,
2013-01-10 13:52:00,68.0,-16.0,-100.00,NNW,345,8.0,21.0,3,0.00,,,0.00,707.000000,,2013-01-10 23:52:00,
2013-01-10 14:23:00,64.0,-18.0,-100.00,NNW,335,12.0,20.0,3,0.00,,,0.00,401.000000,,2013-01-11 00:23:00,
2013-01-10 14:33:00,64.0,-18.0,-100.00,NNW,335,12.0,20.0,3,0.00,,,0.00,401.000000,,2013-01-11 00:33:00,
2013-01-10 14:42:00,64.0,-18.0,-100.00,NNW,335,12.0,20.0,3,0.00,,,0.00,401.000000,,2013-01-11 00:42:00,
2013-01-10 14:52:00,64.0,-18.0,-100.00,NNW,335,12.0,20.0,3,0.00,,,0.00,401.000000,,2013-01-11 00:52:00,
2013-01-10 15:22:00,65.0,-18.0,-100.00,NW,318,12.0,20.0,3,0.00,,,0.00,471.000000,,2013-01-11 01:22:00,
2013-01-10 15:33:00,65.0,-18.0,-100.00,NW,318,12.0,20.0,3,0.00,,,0.00,471.000000,,2013-01-11 01:33:00,
2013-01-10 15:42:00,65.0,-18.0,-100.00,NW,318,12.0,20.0,3,0.00,,,0.00,471.000000,,2013-01-11 01:42:00,
2013-01-10 15:52:00,65.0,-18.0,-100.00,NW,318,12.0,20.0,3,0.00,,,0.00,471.000000,,2013-01-11 01:52:00,
2013-01-10 16:23:00,63.0,-19.0,-100.00,NW,323,9.0,18.0,3,0.00,,,0.00,214.000000,,2013-01-11 02:23:00,
2013-01-10 16:33:00,63.0,-19.0,-100.00,NW,323,9.0,18.0,3,0.00,,,0.00,214.000000,,2013-01-11 02:33:00,
2013-01-10 16:43:00,63.0,-19.0,-100.00,NW,323,9.0,18.0,3,0.00,,,0.00,214.000000,,2013-01-11 02:43:00,
2013-01-10 16:52:00,63.0,-19.0,-100.00,NW,323,9.0,18.0,3,0.00,,,0.00,214.000000,,2013-01-11 02:52:00,
2013-01-10 17:22:00,56.0,-24.0,-100.00,NNW,342,10.0,17.0,3,0.47,,,0.47,51.000000,,2013-01-11 03:22:00,
2013-01-10 17:33:00,56.0,-24.0,-100.00,NNW,342,10.0,17.0,3,0.47,,,0.47,51.000000,,2013-01-11 03:33:00,
2013-01-10 17:42:00,56.0,-24.0,-100.00,NNW,342,10.0,17.0,3,0.47,,,0.47,51.000000,,2013-01-11 03:42:00,
2013-01-10 17:52:00,56.0,-24.0,-100.00,NNW,342,10.0,17.0,3,0.47,,,0.47,51.000000,,2013-01-11 03:52:00,
2013-01-10 18:22:00,58.0,-22.0,-100.00,NW,308,4.0,22.0,3,0.09,,,0.56,30.000000,,2013-01-11 04:22:00,
2013-01-10 18:32:00,58.0,-22.0,-100.00,NW,308,4.0,22.0,3,0.09,,,0.56,30.000000,,2013-01-11 04:32:00,
2013-01-10 18:42:00,58.0,-22.0,-100.00,NW,308,4.0,22.0,3,0.09,,,0.56,30.000000,,2013-01-11 04:42:00,
2013-01-10 18:52:00,58.0,-22.0,-100.00,NW,308,4.0,22.0,3,0.09,,,0.56,30.000000,,2013-01-11 04:52:00,
2013-01-10 19:22:00,56.0,-24.0,-100.00,NW,322,2.0,10.0,3,0.00,,,0.56,4.000000,,2013-01-11 05:22:00,
2013-01-10 19:33:00,56.0,-24.0,-100.00,NW,322,2.0,10.0,3,0.00,,,0.56,4.000000,,2013-01-11 05:33:00,
2013-01-10 19:42:00,56.0,-24.0,-100.00,NW,322,2.0,10.0,3,0.00,,,0.56,4.000000,,2013-01-11 05:42:00,
2013-01-10 19:52:00,56.0,-24.0,-100.00,NW,322,2.0,10.0,3,0.00,,,0.56,4.000000,,2013-01-11 05:52:00,
2013-01-10 20:22:00,54.0,-25.0,-100.00,SSE,165,4.0,15.0,3,0.00,,,0.56,1.000000,,2013-01-11 06:22:00,
2013-01-10 20:32:00,54.0,-25.0,-100.00,SSE,165,4.0,15.0,3,0.00,,,0.56,1.000000,,2013-01-11 06:32:00,
2013-01-10 20:42:00,54.0,-25.0,-100.00,SSE,165,4.0,15.0,3,0.00,,,0.56,1.000000,,2013-01-11 06:42:00,
2013-01-10 20:52:00,54.0,-25.0,-100.00,SSE,165,4.0,15.0,3,0.00,,,0.56,1.000000,,2013-01-11 06:52:00,
2013-01-10 21:22:00,51.0,-27.0,-100.00,ESE,109,11.0,14.0,3,0.01,,,0.57,0.000000,,2013-01-11 07:22:00,
2013-01-10 21:32:00,51.0,-27.0,-100.00,ESE,109,11.0,14.0,3,0.01,,,0.57,0.000000,,2013-01-11 07:32:00,
2013-01-10 21:42:00,51.0,-27.0,-100.00,ESE,109,11.0,14.0,3,0.01,,,0.57,0.000000,,2013-01-11 07:42:00,
2013-01-10 21:52:00,51.0,-27.0,-100.00,ESE,109,11.0,14.0,3,0.01,,,0.57,0.000000,,2013-01-11 07:52:00,
2013-01-10 22:22:00,54.0,-25.0,-100.00,ESE,114,12.0,20.0,3,0.00,,,0.57,0.000000,,2013-01-11 08:22:00,
2013-01-10 22:32:00,54.0,-25.0,-100.00,ESE,114,12.0,20.0,3,0.00,,,0.57,0.000000,,2013-01-11 08:32:00,
2013-01-10 22:42:00,54.0,-25.0,-100.00,ESE,114,12.0,20.0,3,0.00,,,0.57,0.000000,,2013-01-11 08:42:00,
2013-01-10 22:52:00,54.0,-25.0,-100.00,ESE,114,12.0,20.0,3,0.00,,,0.57,0.000000,,2013-01-11 08:52:00,
2013-01-10 23:22:00,53.0,-26.0,-100.00,ESE,104,14.0,21.0,3,0.00,,,0.57,0.000000,,2013-01-11 09:22:00,
2013-01-10 23:32:00,53.0,-26.0,-100.00,ESE,104,14.0,21.0,3,0.00,,,0.57,0.000000,,2013-01-11 09:32:00,
2013-01-10 23:42:00,53.0,-26.0,-100.00,ESE,104,14.0,21.0,3,0.00,,,0.57,0.000000,,2013-01-11 09:42:00,
2013-01-10 23:52:00,53.0,-26.0,-100.00,ESE,104,14.0,21.0,3,0.00,,,0.57,0.000000,,2013-01-11 09:52:00,